Regional Weather Roundup
Issued by NWS Binghamton, NY

Home | Current Version | Previous Version | Text Only | Print | Product List | Glossary On
Versions: 1 2 3 4 5 6 7 8 9 10 11 12 13 14 15 16 17 18 19 20 21 22 23 24 25 26 27 28 29 30 31 32 33 34 35 36 37 38 39 40 41 42 43 44 45 46 47 48 49 50
000
ASUS41 KBGM 272310
RWRBGM
RWRBGM
BINGHAMTON REGIONAL WEATHER ROUNDUP
NATIONAL WEATHER SERVICE BINGHAMTON NY
600 PM EST THU NOV 27 2014

Note: "fair" indicates few or no clouds below 12,000 feet with no
significant weather and/or obstructions to visibility.

* = Station(s) that does not report precipitation, such as rain,
snow, etc, also no thunder or fog.

!NYZ009-015>018-022>025-036-037-044>046-055>057-062-280000
...CENTRAL NEW YORK...

CITY           SKY/WX    TMP DP  RH WIND       PRES   REMARKS
BINGHAMTON     MOCLDY    24  22  91 NW5       29.99S WCI  18
CORTLAND       MOCLDY    27  27 100 CALM      30.04R
DANSVILLE      CLOUDY    32  24  72 CALM      30.06R
ELMIRA         PTCLDY    26  21  81 NW3       30.05R
ITHACA         CLOUDY    25  23  91 CALM      30.05R
HAMILTON       CLOUDY    28  25  86 CALM      30.02R
MONTICELLO     CLOUDY   N/A N/A N/A W7        29.97S
NORWICH        CLOUDY    28  25  86 N5        30.02S WCI  23
PENN YAN       CLOUDY    29  22  75 CALM      30.05R
ROME           CLOUDY    29  27  92 W6        30.06S WCI  23
SIDNEY         FLURRIES  28  28 100 W6        30.01S WCI  22
SYRACUSE       FLURRIES  29  27  92 CALM      30.06R
$$

!PAZ038>040-043-044-047-048-072-280000
...NORTHEAST PENNSYLVANIA...

CITY           SKY/WX    TMP DP  RH WIND       PRES   REMARKS
HAZLETON       PTCLDY    28  27  93 W6        30.02S WCI  22
SCRANTON       CLEAR     30  21  69 W10       30.03R WCI  21
TOWANDA*       CLEAR     25  21  86 SW6       30.07R WCI  18
$$
&&
KEY
WCI = WIND CHILL INDEX
VSB = VISIBILITY
HX  = HEAT INDEX
$$



USA.gov is the U.S. government's official web portal to all federal, state and local government web resources and services.